EST,Max TemperatureF,Mean TemperatureF,Min TemperatureF,Max Dew PointF,MeanDew PointF,Min DewpointF,Max Humidity, Mean Humidity, Min Humidity, Max Sea Level PressureIn, Mean Sea Level PressureIn, Min Sea Level PressureIn, Max VisibilityMiles, Mean VisibilityMiles, Min VisibilityMiles, Max Wind SpeedMPH, Mean Wind SpeedMPH, Max Gust SpeedMPH,PrecipitationIn, CloudCover, Events, WindDirDegrees
2012-11-1,55,45,35,36,34,32,93,66,41,29.90,29.83,29.79,10,10,10,12,2,17,0.00,4,,262
2012-11-2,62,47,32,36,32,30,93,62,32,30.00,29.91,29.84,10,10,10,13,2,26,0.00,1,,289
2012-11-3,60,46,32,36,31,27,93,61,27,30.14,30.07,30.01,10,10,10,7,1,,0.00,0,,318
2012-11-4,55,48,42,41,36,32,71,60,50,30.09,30.03,29.99,10,10,7,7,3,,0.00,6,,51
2012-11-5,53,44,35,41,32,28,87,61,38,30.13,30.08,30.04,10,10,10,8,3,,0.00,1,,19
2012-11-6,42,38,33,32,32,30,93,76,61,30.15,30.08,29.97,10,10,10,10,2,16,0.00,4,Rain,22
2012-11-7,51,40,30,34,31,28,100,79,47,29.98,29.93,29.86,10,10,5,6,0,,0.00,2,,350
2012-11-8,60,45,30,34,27,14,100,62,17,30.17,30.07,29.98,10,10,7,12,2,17,0.00,1,,330
2012-11-9,64,48,32,32,29,27,87,57,24,30.29,30.24,30.17,10,10,10,7,1,,0.00,0,,327
2012-11-10,69,50,32,37,33,28,100,52,21,30.40,30.36,30.31,10,10,10,9,2,,0.00,0,,227
2012-11-11,69,53,37,54,43,34,93,67,34,30.51,30.44,30.40,10,10,10,13,2,18,0.00,0,,197
2012-11-12,64,58,53,61,57,54,100,94,82,30.44,30.32,30.21,10,9,2,10,5,,0.13,4,Rain,166
2012-11-13,62,50,35,59,43,36,100,85,54,30.43,30.33,30.19,10,9,5,13,6,21,0.26,5,Rain,26
2012-11-14,48,40,32,37,31,28,100,71,50,30.51,30.44,30.39,10,10,10,12,5,20,0.00,1,,33
2012-11-15,42,38,35,41,34,30,100,81,75,30.38,30.33,30.28,10,10,7,9,4,,0.01,7,Rain,24
2012-11-16,53,42,32,41,35,32,100,74,44,30.42,30.33,30.29,10,10,2,9,1,,0.00,1,,11
2012-11-17,53,42,32,32,29,23,100,62,30,30.50,30.46,30.42,10,10,10,15,3,21,0.00,0,,32
2012-11-18,55,48,42,41,39,32,81,70,58,30.49,30.43,30.37,10,10,10,16,9,23,0.00,5,,27
2012-11-19,57,50,42,43,41,39,87,72,59,30.37,30.30,30.22,10,10,10,13,8,20,0.00,5,,21
2012-11-20,55,46,37,45,41,37,100,82,63,30.22,30.15,30.09,10,10,10,4,0,,0.00,0,,355
2012-11-21,59,46,33,43,34,28,100,71,31,30.21,30.16,30.12,10,9,4,13,2,17,0.00,0,,13
2012-11-22,59,46,32,32,29,23,100,64,25,30.29,30.23,30.19,10,10,10,9,1,,0.00,0,,16
2012-11-23,62,46,30,41,32,27,93,58,34,30.20,30.05,29.93,10,10,10,9,2,,0.00,1,,237
2012-11-24,50,40,30,30,22,18,65,47,30,30.16,30.04,29.96,10,10,10,13,5,20,0.00,0,,334
2012-11-25,50,36,23,23,21,18,86,55,30,30.21,30.13,30.05,10,10,10,12,3,12,0.00,0,,213
2012-11-26,62,46,30,32,25,21,80,50,20,30.24,30.17,30.11,10,10,10,8,2,,0.00,0,,208
2012-11-27,55,48,42,45,35,27,100,64,38,30.27,30.18,30.13,10,9,5,8,3,,0.10,7,Rain,247
2012-11-28,51,40,30,37,31,23,100,73,33,30.42,30.34,30.26,10,9,2,10,2,16,0.00,2,,353
2012-11-29,51,38,24,34,28,21,93,69,37,30.50,30.43,30.39,10,10,10,9,1,,0.00,0,,212
2012-11-30,59,44,30,39,33,28,100,70,36,30.43,30.37,30.31,10,10,10,8,1,,0.00,0,,204